This demonstration page uses our WeatherBlox Daily Observations layout. Learn more.

Left ArrowRight Arrow

Hourly Observations for August 18, 2022

Temp ( °F °C ) Dew Point ( °F °C ) Humidity (%) Winds ( mph kmh ) Pressure ( in mb ) Visibility ( mi km ) Precip ( " mm )
12:53 am 00:53 Cloudy 70 21.1 65 18.3 84 84 SW 3 6 29.97 1015 10 16 0.00 0.00
1:53 am 01:53 Cloudy 70 21.1 64 17.8 81 81 SSW 6 9 29.96 1015 10 16 0.00 0.00
2:53 am 02:53 Cloudy 71 21.7 65 18.3 81 81 W 5 7 29.95 1014 10 16 0.00 0.00
3:53 am 03:53 Cloudy 71 21.7 65 18.3 81 81 Calm 29.94 1014 10 16 0.00 0.00
4:53 am 04:53 Cloudy 71 21.7 65 18.3 81 81 E 3 6 29.93 1014 10 16 0.00 0.00
5:53 am 05:53 Cloudy 70 21.1 66 18.9 87 87 NNE 3 6 29.94 1014 10 16 0.00 0.00
6:53 am 06:53 Cloudy 70 21.1 66 18.9 87 87 N 3 6 29.95 1014 10 16 0.00 0.00
7:53 am 07:53 Cloudy 70 21.1 67 19.4 90 90 NNE 6 9 29.96 1015 10 16 0.00 0.00
8:53 am 08:53 Cloudy 73 22.8 67 19.4 81 81 NE 6 9 29.96 1015 10 16 0.00 0.00
9:50 am 09:50 Cloudy 75 24 68 20 78 78 ENE 7 11 29.97 1015 10 16 0.00 0.00
9:53 am 09:53 Cloudy 75 23.9 68 20 79 79 ENE 7 11 29.97 1015 10 16 0.00 0.00
10:31 am 10:31 Cloudy 76 24.4 68 20 77 77 ENE 6 9 29.96 1015 10 16 0.00 0.00
10:53 am 10:53 Cloudy 76 24.4 68 20 77 77 E 6 9 29.98 1015 10 16 0.00 0.00
11:53 am 11:53 Cloudy 78 25.6 67 19.4 69 69 VRB 6 9 29.98 1015 10 16 0.00 0.00
12:53 pm 12:53 Mostly Cloudy 80 26.7 67 19.4 64 64 VRB 7 11 29.97 1015 10 16 0.00 0.00
1:53 pm 13:53 Cloudy 82 27.8 67 19.4 60 60 Calm 29.96 1015 10 16 0.00 0.00
2:53 pm 14:53 Cloudy 80 26.7 66 18.9 62 62 undefined N/A 29.95 1014 10 16 0.00 0.00
3:53 pm 15:53 Cloudy 82 27.8 67 19.4 60 60 VRB 3 6 29.93 1014 10 16 0.00 0.00
4:53 pm 16:53 Cloudy 81 27.2 67 19.4 62 62 E 6 9 29.93 1014 10 16 0.00 0.00
5:53 pm 17:53 Mostly Cloudy 81 27.2 68 20 65 65 SSE 7 11 29.93 1013 10 16 0.00 0.00
6:53 pm 18:53 Sunny 80 26.7 67 19.4 64 64 S 5 7 29.92 1013 10 16 0.00 0.00
7:53 pm 19:53 Mostly Cloudy 80 26.7 68 20 67 67 SE 5 7 29.93 1014 10 16 0.00 0.00
8:53 pm 20:53 Mostly Cloudy 79 26.1 68 20 69 69 ESE 3 6 29.93 1014 10 16 0.00 0.00
9:53 pm 21:53 Cloudy 78 25.6 68 20 71 71 ESE 3 6 29.95 1014 10 16 0.00 0.00
10:53 pm 22:53 Mostly Cloudy 77 25 69 20.6 77 77 E 3 6 29.96 1015 10 16 0.00 0.00
11:53 pm 23:53 Cloudy 73 22.8 70 21.1 90 90 Calm 29.96 1015 10 16 0.00 0.00

Powered by AerisWeather